Location: Unspecified
(0.0000°N, 0.0000°E)
Time: 20:35:42
(UTC+02:00)

Altair - All Passes

Search period start: 27 April 2015 00:00
Search period end: 07 May 2015 00:00
Orbit: 1501 x 1682 km, 47.2° (Epoch: 25 April)

Date Brightness Start Highest point End Pass type
(mag) Time Alt. Az. Time Alt. Az. Time Alt. Az.
27 Apr - 01:33:19 10° WSW 01:42:19 36° NW 01:50:51 10° NNE night (unlit)
27 Apr - 10:15:58 10° N 10:21:37 19° NE 10:27:52 10° E daylight
27 Apr - 12:17:19 10° NW 12:26:33 83° SW 12:36:07 10° SE daylight
27 Apr - 14:26:33 10° WSW 14:31:56 15° SW 14:36:44 10° SSW daylight
27 Apr - 23:02:51 10° SSW 23:12:18 45° SE 23:21:37 10° ENE visible
28 Apr - 01:07:50 10° WSW 01:17:08 41° NW 01:25:58 10° NNE night (unlit)
28 Apr - 09:51:31 10° NNE 09:56:23 16° NE 10:01:53 10° E daylight
28 Apr - 11:52:12 10° NW 12:01:26 88° NE 12:10:58 10° SE daylight
28 Apr - 14:00:34 10° W 14:06:38 18° SW 14:12:16 10° S daylight
28 Apr - 22:37:53 10° SSW 22:47:05 40° SE 22:56:14 10° ENE visible
29 Apr - 00:42:24 10° WSW 00:51:56 46° NW 01:01:03 10° NNE night (unlit)
29 Apr - 09:27:16 10° NNE 09:31:06 14° NE 09:35:41 10° ENE daylight
29 Apr - 11:27:07 10° NW 11:36:18 80° NE 11:45:47 10° SE daylight
29 Apr - 13:34:44 10° W 13:41:21 20° SW 13:47:40 10° S daylight
29 Apr - 22:12:57 10° SSW 22:21:51 36° SE 22:30:47 10° ENE visible
30 Apr - 00:16:59 10° SW 00:26:45 51° NW 00:36:06 10° NNE visible
30 Apr - 09:03:24 10° NNE 09:05:48 12° NE 09:09:02 10° ENE daylight
30 Apr - 11:02:03 10° NNW 11:11:10 71° NE 11:20:34 10° SE daylight
30 Apr - 13:09:01 10° W 13:16:07 23° SW 13:22:58 10° S daylight
30 Apr - 21:48:03 10° S 21:56:36 32° SE 22:05:16 10° ENE visible
30 Apr - 23:51:38 10° SW 00:01:33 58° NW 00:11:06 10° NNE visible
01 May - 10:37:02 10° NNW 10:46:03 64° NE 10:55:19 10° SE daylight
01 May - 12:43:23 10° W 12:50:53 26° SW 12:58:13 10° S daylight
01 May - 21:23:12 10° S 21:31:20 28° SE 21:39:42 10° ENE visible
01 May - 23:26:20 10° SW 23:36:22 64° NW 23:46:05 10° NNE visible
02 May - 01:39:25 10° WNW 01:42:05 11° NW 01:43:46 10° NNW night (unlit)
02 May - 10:12:02 10° NNW 10:20:55 57° NE 10:30:03 10° SE daylight
02 May - 12:17:50 10° WNW 12:25:39 29° SW 12:33:25 10° S daylight
02 May - 20:58:24 10° S 21:06:04 25° SE 21:14:03 10° E visible
02 May - 23:01:03 10° SW 23:11:11 72° NW 23:21:02 10° NNE visible
03 May - 01:12:17 10° WNW 01:16:44 13° NW 01:20:18 10° NNW night (unlit)
03 May - 09:47:03 10° NNW 09:55:46 50° NE 10:04:44 10° ESE daylight
03 May - 11:52:21 10° WNW 12:00:27 33° SW 12:08:33 10° SSE daylight
03 May - 20:33:40 10° S 20:40:47 22° SE 20:48:19 10° E visible
03 May - 22:35:49 10° SW 22:46:01 80° NW 22:55:57 10° NE visible
04 May - 00:45:50 10° WNW 00:51:25 15° NW 00:56:11 10° NNW visible
04 May - 09:22:07 10° NNW 09:30:38 44° NE 09:39:23 10° ESE daylight
04 May - 11:26:55 10° WNW 11:35:16 37° SW 11:43:39 10° SSE daylight
04 May - 20:09:01 10° S 20:15:28 20° SE 20:22:29 10° E visible
04 May - 22:10:36 10° SW 22:20:50 88° NW 22:30:49 10° NE visible
05 May - 00:19:40 10° W 00:26:06 18° NW 00:31:48 10° N visible
05 May - 08:57:13 10° NNW 09:05:29 39° NE 09:13:59 10° ESE daylight
05 May - 11:01:32 10° WNW 11:10:05 42° SW 11:18:43 10° SSE daylight
05 May - 19:44:28 10° S 19:50:09 17° SE 19:56:30 10° E daylight
05 May - 21:45:26 10° SW 21:55:39 84° SE 22:05:40 10° NE visible
05 May - 23:53:42 10° W 00:00:49 20° NW 00:07:16 10° N visible
06 May - 08:32:20 10° NNW 08:40:19 35° NE 08:48:33 10° ESE daylight
06 May - 10:36:12 10° WNW 10:44:56 47° SW 10:53:46 10° SSE daylight
06 May - 19:20:05 10° SSE 19:24:49 15° SE 19:30:20 10° ESE daylight
06 May - 21:20:17 10° SW 21:30:28 77° SE 21:40:29 10° NE visible
06 May - 23:27:51 10° W 23:35:33 23° NW 23:42:38 10° N visible
